Temperature
20 20 20 20 18 17 18 19 19 19 19 19 19 19 18 18 18 18 17 17 17 17 17 17 17 17 17 17 17 17 17 17 17 17 17 17 17 17 17 17 17 17 17 17 17 17 17 17 17
20 20 20 20 17 17 18 19 19 19 19 19 19 18 18 17 17 17 17 17 17 17 17 17 17 17 17 17 17 17 17 17 17 17 17 17 17 17 17 17 17 17 17 17 17 17 17 17 17
20 20 20 16 17 17 19 19 19 19 20 19 19 18 17 17 17 17 17 17 17 17 17 17 17 17 17 17 17 17 17 17 17 17 17 17 17 16 16 17 17 17 17 17 17 17 17 17 17
20 20 19 17 18 18 19 19 19 19 20 19 18 17 17 17 17 17 17 17 17 17 17 17 17 17 17 17 17 17 17 17 16 16 17 17 16 16 16 16 16 16 16 16 17 17 17 17 17
21 20 17 17 18 18 18 19 19 19 19 18 18 17 17 17 17 17 17 17 17 17 17 17 17 17 17 17 17 16 16 16 16 16 16 16 16 16 16 16 16 16 16 16 16 16 16 16 16
21 17 17 17 18 19 19 19 19 18 18 18 18 17 17 17 17 17 17 17 17 17 17 17 17 17 17 16 16 16 16 16 16 16 16 16 16 16 16 16 16 16 16 16 16 16 16 16 16
19 16 17 18 18 19 19 19 19 18 18 18 18 17 17 17 17 17 17 17 17 17 17 17 17 17 16 16 16 16 16 16 16 16 16 16 16 16 16 16 16 16 16 16 16 16 16 16 16
20 16 17 17 18 19 19 19 19 19 18 18 18 17 17 17 17 17 17 17 17 17 17 17 17 17 16 16 16 16 16 16 16 16 16 16 16 16 16 16 16 16 16 16 16 16 16 16 16
20 16 17 18 18 19 19 19 19 19 18 18 18 18 18 17 17 17 17 17 17 17 17 17 17 16 16 16 16 16 16 16 16 16 16 16 16 16 16 16 16 15 15 16 16 16 16 16 16
19 16 18 18 18 18 19 18 19 18 17 17 17 18 18 17 17 17 17 17 17 17 17 16 16 16 16 16 16 16 16 16 16 16 16 16 16 16 16 16 15 15 15 16 16 16 16 16 16
19 18 18 19 19 19 18 18 18 18 17 17 17 17 17 17 17 17 17 17 17 17 16 16 16 16 16 16 16 16 16 16 16 16 16 15 15 16 16 16 15 16 16 16 16 16 15 15 16
18 18 19 19 20 19 19 18 18 18 18 18 18 18 17 17 17 17 17 17 17 17 16 16 16 16 16 16 16 16 16 16 16 16 16 16 16 16 15 15 15 15 15 15 15 15 15 15 15
19 19 19 19 19 19 18 18 17 17 18 18 18 18 17 17 17 17 17 17 17 17 16 16 16 16 16 16 16 16 16 16 16 15 15 15 15 15 15 15 15 15 15 15 15 15 15 15 15
19 19 19 19 19 19 18 17 17 17 18 18 18 17 17 17 17 17 17 17 17 17 16 16 16 16 16 16 16 16 15 15 15 15 15 15 15 15 15 15 15 15 15 15 15 15 15 15 15
19 18 18 18 19 19 18 17 17 17 17 17 17 17 17 17 17 17 17 17 17 17 16 16 16 16 16 16 16 15 15 15 15 15 15 15 15 15 15 15 15 15 15 15 15 15 15 15 15
18 18 17 18 18 18 18 17 17 18 17 16 16 17 17 17 17 17 17 17 17 17 16 16 16 16 16 16 15 15 15 15 15 15 15 15 15 15 15 15 15 15 15 15 15 15 15 15 14
17 17 17 18 18 18 17 16 17 17 17 16 16 16 17 17 17 17 17 16 16 16 16 16 16 16 16 16 15 15 15 15 15 15 15 15 15 15 14 14 15 15 15 15 15 14 15 14 14
17 17 17 17 18 17 16 16 16 16 16 16 16 16 16 16 17 17 16 16 16 16 16 16 16 16 16 15 15 15 15 15 15 15 14 14 14 14 14 14 14 14 14 14 14 14 14 14 14
18 17 17 17 18 17 16 16 16 16 16 15 15 16 16 17 17 17 16 16 16 16 16 16 16 16 15 15 15 15 15 15 15 14 14 14 14 14 14 14 14 14 14 14 14 14 14 14 14
17 17 17 17 18 17 16 16 16 15 15 16 16 16 16 17 17 16 16 16 16 16 16 16 16 16 15 15 15 15 15 15 14 14 14 14 14 14 14 14 14 14 14 14 14 14 14 14 14
18 17 17 17 17 17 17 16 16 16 16 16 16 16 16 17 17 17 16 16 16 16 16 16 16 16 15 15 15 15 15 14 14 14 14 14 14 14 14 14 14 14 14 14 14 14 14 14 13
17 18 18 17 16 15 16 15 15 15 15 15 15 16 16 16 17 17 17 16 16 16 16 16 16 16 15 15 15 15 15 14 14 14 14 14 14 14 14 14 13 13 13 13 13 13 13 13 13
18 18 18 17 16 15 15 15 15 14 15 15 15 16 16 17 17 17 17 17 16 16 16 16 16 15 15 15 15 15 14 14 14 14 14 14 14 14 14 13 13 13 13 13 13 13 13 13 13
18 17 16 14 14 15 16 15 15 14 15 15 15 16 16 16 17 17 17 16 16 16 16 16 15 15 15 15 15 14 14 14 14 14 14 14 14 14 13 13 13 13 13 13 13 13 13 13 13
17 16 15 15 14 15 15 15 14 15 15 15 15 16 16 17 16 16 16 16 16 16 16 15 15 15 15 15 14 14 14 14 14 14 13 13 13 13 13 13 13 13 13 13 13 13 13 13 13
17 16 15 16 15 14 15 14 15 15 15 16 16 16 16 16 16 16 16 16 16 16 16 15 15 15 15 14 14 14 14 14 14 13 13 13 13 13 13 13 13 13 13 12 12 13 13 12 12
16 15 15 14 14 14 14 14 15 15 15 14 15 15 16 16 16 16 16 16 16 16 16 15 15 15 15 14 14 14 14 14 13 13 13 13 13 13 13 13 13 13 12 12 12 12 12 12 12
16 14 13 14 14 14 14 14 14 15 14 14 14 14 15 15 16 16 16 16 16 16 15 15 15 15 14 14 14 14 14 13 13 13 13 13 13 13 13 13 12 12 12 12 12 12 12 12 12
16 15 13 12 13 13 14 14 15 14 14 14 13 14 15 15 15 15 15 15 15 15 15 15 15 14 14 14 14 14 13 13 13 13 13 13 12 12 12 12 12 12 12 12 12 12 12 12 12
16 15 13 14 14 12 13 14 15 14 14 14 14 14 14 15 15 15 15 15 15 15 15 14 14 14 14 14 14 13 13 13 13 13 12 12 12 12 12 12 12 12 11 11 11 11 11 11 11
Wind_Speed
2 4 3 4 6 6 3 2 1 2 3 3 5 6 6 4 2 2 0 2 3 3 2 4 5 5 6 6 6 6 6 7 7 7 8 8 8 9 9 9 9 10 10 10 10 11 11 11 11
1 2 4 5 5 4 2 2 2 2 3 4 6 6 6 4 3 3 1 2 3 3 4 4 5 6 6 6 5 5 6 6 6 7 7 8 8 8 8 9 9 9 10 10 10 10 11 11 10
2 3 4 5 4 3 1 1 1 3 4 3 4 5 4 2 2 2 2 4 4 4 5 5 6 6 6 5 5 5 4 5 6 7 7 7 8 8 8 9 9 9 10 10 10 10 10 10 10
3 5 5 6 4 1 1 1 2 3 4 5 4 5 3 3 1 2 5 5 5 4 4 4 5 6 6 5 5 5 4 5 6 7 8 8 8 8 8 9 10 10 10 10 10 10 10 10 10
4 5 6 4 2 1 1 1 2 4 3 3 4 5 3 4 4 6 6 5 5 3 4 4 5 5 5 6 6 6 6 6 8 9 8 8 8 9 9 9 9 10 10 10 10 10 10 10 9
5 5 5 2 2 2 2 2 3 4 4 3 4 4 2 2 4 5 5 4 4 4 4 4 5 5 6 6 7 7 7 8 9 9 8 8 9 9 9 9 9 9 10 10 10 10 10 10 10
5 5 4 2 1 2 1 2 4 4 4 2 3 4 1 1 3 4 4 4 4 4 5 5 5 5 5 6 7 7 8 8 8 8 7 7 8 8 9 9 9 9 10 10 10 10 10 10 11
5 5 3 1 1 1 1 2 3 4 3 3 4 5 3 3 4 5 5 5 4 4 4 4 5 5 5 5 6 7 8 8 8 7 7 7 7 7 7 8 8 8 9 9 10 10 10 11 11
4 5 2 2 3 1 1 3 3 3 5 4 3 3 3 7 7 6 4 4 3 3 3 3 3 4 4 4 5 6 6 7 7 7 7 7 7 7 6 7 8 8 8 8 9 10 10 10 11
4 3 3 3 4 3 2 3 3 4 4 4 4 5 6 7 7 6 4 3 1 1 1 1 2 2 3 3 5 5 5 5 6 6 6 6 6 5 5 7 8 8 8 8 9 10 10 10 9
3 4 2 1 2 4 3 3 3 6 2 3 5 6 6 6 6 5 3 2 1 1 1 0 1 2 2 3 3 4 4 5 5 5 5 5 5 5 5 5 6 7 7 7 8 8 8 8 7
3 0 2 1 2 3 3 3 3 3 3 4 7 9 7 7 5 5 4 3 1 1 1 1 1 2 2 3 3 3 3 3 3 4 4 4 3 3 3 4 4 5 5 5 6 5 7 7 7
2 1 1 3 5 5 5 4 3 1 1 5 8 8 7 6 5 3 3 3 2 2 1 1 2 2 2 2 2 3 3 2 2 3 3 4 3 2 3 3 4 4 4 4 4 4 5 5 5
2 2 1 2 3 2 5 3 3 0 3 7 7 6 5 5 4 3 3 3 2 2 1 1 2 2 2 2 2 2 2 2 3 2 3 4 3 3 3 3 3 3 3 3 4 3 3 3 3
3 3 3 2 2 2 4 3 1 2 6 6 5 5 4 4 4 4 4 4 3 2 2 2 2 3 3 2 2 2 2 3 2 2 3 4 3 3 3 2 2 2 3 4 4 4 3 3 3
3 3 1 2 1 2 5 2 4 4 7 6 5 4 4 3 3 3 3 3 3 3 2 2 2 3 3 3 3 3 3 4 2 2 3 3 3 3 3 2 2 2 3 3 3 2 3 3 2
3 1 1 3 1 2 4 4 4 4 7 6 5 5 4 3 2 3 3 3 3 4 3 3 3 3 3 3 3 3 3 3 3 3 2 2 2 3 3 2 2 3 3 3 2 2 2 2 2
3 2 1 3 1 3 3 5 4 4 7 7 6 5 5 5 5 4 3 3 3 3 4 3 3 3 3 3 3 3 3 3 3 2 2 1 1 3 3 2 2 3 3 2 2 3 2 2 2
3 3 2 4 2 3 4 5 6 4 5 6 6 6 6 6 4 2 3 3 3 3 3 3 3 3 3 2 2 2 1 1 2 2 2 2 2 2 3 2 2 2 2 1 2 2 3 2 1
3 2 2 2 1 3 3 5 5 4 6 7 8 8 7 5 3 3 4 3 3 4 3 3 3 3 2 2 1 1 1 1 1 1 2 2 2 2 2 2 2 2 2 2 2 2 2 1 2
3 5 5 3 1 2 1 4 4 3 3 4 5 6 6 7 7 5 5 5 4 4 4 4 3 3 2 2 2 3 3 2 2 2 2 2 2 2 2 2 2 1 2 1 1 2 3 1 1
5 5 5 4 2 2 1 3 6 3 3 5 6 6 7 7 6 6 6 6 5 5 4 4 3 3 3 3 3 3 2 1 1 1 0 1 1 1 1 1 1 1 1 1 1 1 1 2 1
5 2 3 2 3 0 1 2 7 2 4 6 7 8 8 7 7 7 7 7 6 5 4 4 3 2 2 3 3 3 2 1 0 0 1 1 1 1 1 1 1 1 1 1 1 1 1 1 2
4 5 5 4 3 1 3 4 6 4 6 5 6 7 8 7 7 6 5 4 4 3 3 3 3 2 2 3 3 3 3 1 1 0 0 0 1 1 1 1 0 1 0 1 1 2 2 1 1
4 5 3 3 2 4 2 3 7 6 6 6 7 7 7 7 6 5 4 4 4 4 4 4 4 3 2 3 3 3 3 3 3 2 2 1 0 1 1 0 1 0 1 1 1 1 1 1 1
4 7 6 4 4 4 2 5 6 4 4 3 4 5 5 6 6 6 6 6 5 5 5 5 4 3 3 3 3 2 2 2 2 2 2 2 2 2 1 0 0 1 1 0 1 1 1 1 1
5 4 5 5 2 1 4 6 6 2 2 1 2 3 5 5 6 6 5 5 5 5 5 5 5 3 3 3 3 2 2 2 2 2 2 1 1 1 1 1 1 0 0 1 1 1 1 1 1
5 8 5 4 3 3 5 4 4 4 3 2 2 4 4 4 4 4 4 4 4 4 3 3 4 4 3 3 3 2 2 2 1 1 1 1 1 0 1 1 0 0 0 1 1 1 0 1 1
3 4 5 4 4 5 3 6 4 6 5 5 5 4 5 5 5 5 4 4 3 3 3 3 3 3 2 2 2 2 1 1 1 1 1 1 0 0 0 0 0 0 0 0 1 1 1 1 1
4 6 7 4 4 4 4 6 4 3 3 4 4 3 3 5 5 4 4 4 3 3 2 2 3 3 2 2 2 2 1 1 1 1 1 1 1 0 1 0 0 0 0 0 1 2 1 1 1
Wind_Direction
23 78 77 57 55 55 49 348 0 37 52 47 66 84 94 85 90 131 266 128 126 127 125 123 109 94 89 88 82 87 89 88 87 87 86 84 84 86 85 83 80 78 77 77 77 78 77 77 80
79 81 54 58 77 72 357 331 43 50 133 127 71 70 72 64 60 94 87 135 123 113 101 110 105 93 92 88 81 81 84 87 88 89 88 85 84 85 85 80 79 79 79 79 79 78 77 76 78
78 56 72 67 85 129 161 305 122 73 89 92 79 58 72 66 83 121 148 129 103 87 86 99 99 94 92 86 77 74 78 92 97 95 91 86 84 84 82 77 75 75 75 77 77 77 77 76 80
76 44 55 69 80 173 191 208 145 112 70 51 96 73 57 29 116 139 124 114 100 80 85 95 91 90 85 80 72 63 73 97 106 100 95 90 86 84 82 79 77 75 73 73 74 75 75 75 80
60 71 62 56 36 339 345 34 99 99 81 53 88 94 48 4 78 107 114 110 107 87 78 88 90 87 80 74 70 60 68 95 104 100 94 88 85 86 84 80 78 75 72 69 71 72 72 74 78
56 67 81 78 8 347 3 38 90 83 88 84 92 101 61 46 94 111 110 100 100 89 69 69 73 75 75 67 64 53 70 88 98 97 92 87 84 82 81 79 77 75 73 71 69 69 71 73 77
95 88 110 125 58 2 39 86 102 102 91 103 116 105 98 82 126 122 105 89 79 72 62 51 47 53 66 64 64 57 75 88 91 90 87 84 82 79 77 75 75 75 70 69 68 67 69 73 79
114 100 92 97 134 285 340 92 91 99 101 96 101 127 172 192 132 103 86 77 70 61 55 47 45 44 44 51 59 58 68 77 81 83 81 80 77 73 69 68 71 73 72 70 68 64 68 73 76
86 80 124 190 172 213 63 89 69 70 89 72 72 113 141 130 116 103 85 70 69 66 45 42 42 44 40 44 54 56 59 60 63 67 69 67 62 59 59 63 66 66 67 69 70 69 72 74 74
84 116 201 204 177 155 96 98 113 92 77 67 62 59 92 112 119 121 117 119 126 113 53 33 41 44 44 44 50 50 52 53 54 58 58 62 64 59 57 57 60 62 62 65 67 70 70 70 69
113 155 187 158 152 132 116 93 86 121 118 173 158 142 128 124 131 138 142 150 176 179 131 75 76 61 55 47 59 54 56 57 54 55 61 67 61 53 48 49 47 51 58 58 59 63 66 69 70
113 132 170 175 118 108 118 116 92 112 191 169 152 144 141 145 158 165 168 165 137 109 98 51 78 75 66 68 63 68 67 61 52 47 62 72 68 57 48 51 46 53 61 61 61 67 69 69 70
111 117 79 99 85 94 97 97 114 66 89 113 124 131 145 156 165 165 159 147 132 137 134 116 103 94 88 83 70 74 71 73 64 57 64 81 82 68 62 57 56 55 65 70 69 72 76 71 65
148 131 71 69 91 88 101 68 89 254 119 119 129 142 150 153 155 144 142 142 155 159 141 105 106 101 96 91 77 74 85 94 84 71 67 85 97 93 85 70 62 58 66 82 86 82 81 72 68
103 83 24 7 125 152 105 34 223 192 134 134 144 149 148 157 154 166 177 169 167 164 141 120 126 101 94 86 80 85 83 91 83 79 71 76 91 98 96 86 72 61 74 87 88 75 75 76 68
69 69 31 297 151 146 125 230 257 167 147 157 165 166 167 178 181 189 185 172 156 143 126 115 110 104 106 103 85 75 78 85 82 81 74 68 79 98 95 86 67 65 80 86 92 80 71 61 61
49 127 226 295 215 137 144 217 252 164 161 175 181 186 190 199 213 210 195 184 162 154 138 115 103 108 103 98 90 79 79 81 78 73 75 73 81 100 102 88 72 77 83 78 85 69 81 78 64
203 194 214 244 256 132 164 226 249 189 179 190 194 197 199 207 224 215 190 175 153 139 127 118 99 92 92 83 79 70 61 59 59 61 51 63 95 108 114 102 88 90 83 69 72 76 67 81 77
162 170 222 252 226 158 202 233 248 213 197 201 205 204 206 218 225 193 164 148 131 125 126 132 125 112 107 92 97 101 77 33 36 41 35 40 76 97 110 103 102 94 93 96 97 94 83 62 59
173 186 236 282 224 168 214 261 262 216 209 207 206 206 206 205 191 176 162 155 160 161 160 147 149 146 144 131 132 136 132 92 53 26 25 42 62 79 116 117 116 105 101 89 91 100 104 63 53
212 197 207 213 27 40 77 309 276 249 219 216 210 203 201 194 190 188 181 183 179 183 185 176 177 159 148 121 100 78 64 50 41 22 6 9 44 58 86 107 117 116 122 142 156 137 129 135 43
231 223 194 180 143 281 140 278 282 255 250 226 219 208 207 203 191 188 189 189 196 202 191 175 169 156 150 135 129 127 124 150 223 225 273 342 20 41 60 111 123 131 135 157 188 140 131 138 145
207 165 145 154 157 104 12 198 285 291 256 244 228 216 210 203 191 190 193 195 198 195 181 173 157 157 159 153 153 147 141 183 208 57 56 9 7 24 21 86 115 122 156 178 173 146 133 147 158
141 82 64 54 80 259 231 190 274 243 233 243 226 213 205 199 191 188 186 182 187 178 165 157 154 165 167 162 161 161 166 167 130 98 150 332 346 359 5 47 108 172 179 190 183 172 157 168 163
99 97 32 351 1 252 235 201 250 253 240 226 218 210 198 186 180 179 177 181 181 176 174 165 164 179 182 172 173 175 179 181 192 206 205 218 287 312 307 347 351 320 242 197 163 162 166 172 178
168 148 163 206 225 275 290 235 256 272 276 240 202 190 178 183 182 184 186 186 182 181 177 172 175 186 189 188 197 185 177 187 210 211 201 208 225 239 260 235 291 291 263 189 144 141 175 155 192
148 170 168 139 154 252 277 286 302 323 3 67 148 154 176 187 185 183 179 178 175 173 176 179 179 181 190 197 196 179 172 188 212 222 200 212 242 240 216 191 196 317 354 139 138 139 177 145 189
150 145 111 131 165 249 287 280 264 271 252 226 187 185 188 176 166 161 162 167 167 166 160 152 165 183 192 186 185 182 183 186 191 168 191 215 253 262 115 117 163 194 214 160 146 155 182 141 202
118 118 121 129 155 167 245 270 246 238 223 206 207 197 180 170 166 157 157 156 147 133 130 141 156 158 164 176 173 163 175 160 141 149 184 183 166 162 156 170 141 170 333 194 162 193 186 179 227
172 170 155 164 209 180 186 265 302 262 225 195 193 180 161 159 153 146 135 123 120 126 134 151 154 152 167 161 140 140 145 126 121 140 173 150 154 176 178 147 121 150 171 230 191 200 208 198 221
Height
1488 1488 1488 1490 1494 1505 1509 1505 1502 1501 1501 1501 1501 1502 1504 1508 1511 1516 1513 1511 1512 1512 1512 1513 1513 1512 1512 1512 1511 1511 1511 1511 1511 1511 1511 1511 1512 1512 1512 1512 1512 1512 1512 1511 1511 1511 1511 1511 1511
1489 1489 1490 1491 1503 1516 1513 1505 1503 1501 1501 1502 1503 1504 1506 1508 1510 1511 1511 1512 1512 1513 1513 1514 1513 1513 1513 1512 1512 1511 1511 1511 1511 1511 1512 1512 1513 1513 1513 1514 1514 1513 1513 1513 1513 1512 1512 1512 1513
1489 1490 1492 1496 1508 1515 1511 1504 1502 1502 1502 1502 1504 1506 1508 1510 1511 1512 1512 1512 1513 1514 1514 1514 1514 1514 1513 1513 1512 1511 1510 1510 1510 1511 1512 1513 1514 1514 1514 1515 1515 1515 1514 1514 1514 1514 1514 1514 1514
1491 1492 1495 1503 1509 1508 1505 1503 1502 1502 1503 1504 1505 1509 1511 1513 1513 1513 1513 1514 1514 1515 1515 1515 1515 1515 1514 1514 1513 1511 1508 1507 1509 1511 1513 1514 1515 1515 1515 1516 1516 1516 1516 1516 1516 1516 1516 1516 1516
1492 1494 1502 1511 1509 1506 1503 1502 1502 1502 1504 1506 1506 1510 1512 1514 1514 1514 1514 1515 1515 1516 1516 1517 1517 1516 1516 1515 1513 1510 1506 1505 1508 1511 1514 1515 1516 1516 1517 1517 1517 1517 1517 1517 1517 1517 1517 1517 1518
1493 1496 1511 1516 1511 1506 1503 1503 1503 1504 1506 1507 1508 1511 1514 1515 1515 1515 1516 1517 1517 1517 1518 1518 1518 1518 1517 1516 1514 1510 1505 1505 1509 1513 1515 1517 1517 1518 1518 1519 1519 1519 1519 1519 1519 1519 1519 1519 1519
1496 1502 1511 1512 1512 1508 1505 1504 1504 1506 1507 1509 1509 1512 1514 1515 1516 1517 1517 1518 1519 1519 1519 1519 1519 1519 1519 1518 1516 1513 1509 1509 1512 1515 1518 1519 1519 1520 1520 1521 1521 1521 1521 1521 1521 1521 1520 1520 1521
1496 1503 1510 1512 1512 1509 1505 1505 1506 1506 1508 1510 1511 1512 1514 1516 1517 1518 1519 1520 1520 1520 1521 1521 1521 1521 1520 1520 1518 1517 1515 1515 1517 1519 1520 1521 1521 1522 1522 1523 1523 1523 1523 1522 1522 1522 1522 1522 1522
1497 1507 1514 1511 1510 1508 1505 1505 1507 1508 1509 1510 1511 1513 1514 1516 1517 1519 1520 1520 1521 1522 1522 1522 1522 1522 1522 1522 1521 1521 1520 1520 1520 1521 1522 1523 1523 1524 1524 1525 1525 1525 1525 1524 1524 1524 1524 1524 1524
1499 1510 1509 1505 1504 1505 1505 1506 1507 1509 1510 1511 1512 1513 1515 1516 1518 1519 1520 1521 1522 1522 1523 1524 1524 1524 1524 1524 1523 1523 1523 1523 1524 1524 1524 1525 1525 1526 1526 1526 1526 1526 1526 1526 1526 1526 1526 1526 1526
1500 1505 1504 1503 1503 1504 1506 1507 1508 1509 1512 1512 1513 1514 1515 1517 1518 1519 1521 1522 1523 1524 1524 1525 1525 1525 1525 1525 1525 1525 1525 1526 1526 1526 1526 1527 1527 1527 1528 1528 1528 1528 1528 1528 1528 1527 1527 1527 1528
1501 1503 1503 1503 1504 1505 1506 1508 1509 1510 1512 1512 1513 1514 1516 1517 1519 1520 1521 1522 1524 1524 1525 1526 1526 1526 1526 1527 1527 1527 1527 1527 1527 1528 1528 1528 1528 1528 1529 1529 1529 1529 1529 1529 1529 1529 1529 1529 1529
1502 1503 1503 1504 1505 1506 1507 1509 1510 1511 1512 1513 1514 1515 1517 1518 1520 1521 1522 1523 1524 1525 1526 1526 1526 1527 1527 1527 1528 1528 1528 1529 1529 1529 1529 1529 1530 1530 1530 1530 1530 1530 1530 1530 1530 1531 1531 1531 1531
1502 1503 1504 1505 1506 1507 1508 1510 1511 1512 1513 1513 1514 1516 1517 1518 1520 1521 1522 1523 1524 1525 1526 1527 1527 1527 1528 1528 1529 1529 1529 1529 1530 1530 1530 1530 1531 1531 1531 1531 1531 1531 1531 1531 1532 1531 1532 1532 1532
1503 1505 1506 1506 1506 1508 1509 1513 1513 1512 1513 1514 1515 1516 1517 1519 1520 1521 1522 1524 1524 1525 1526 1527 1527 1528 1528 1529 1529 1529 1530 1530 1530 1530 1531 1531 1531 1532 1532 1532 1532 1532 1532 1532 1532 1532 1532 1532 1532
1504 1509 1514 1509 1507 1508 1513 1520 1512 1512 1513 1514 1515 1517 1517 1519 1520 1521 1523 1524 1525 1526 1526 1527 1527 1528 1528 1529 1529 1530 1530 1530 1531 1531 1531 1532 1532 1532 1532 1532 1532 1532 1532 1532 1532 1532 1532 1532 1533
1511 1517 1516 1512 1507 1508 1512 1516 1511 1511 1512 1514 1515 1516 1517 1519 1520 1521 1522 1523 1524 1525 1526 1527 1527 1528 1528 1529 1530 1530 1530 1530 1531 1531 1531 1532 1532 1532 1532 1532 1532 1532 1532 1532 1532 1532 1532 1533 1533
1516 1516 1515 1515 1509 1509 1513 1514 1510 1511 1512 1512 1514 1515 1516 1517 1519 1520 1522 1523 1524 1525 1526 1527 1527 1528 1528 1529 1529 1530 1530 1530 1531 1531 1531 1531 1532 1532 1532 1532 1532 1532 1532 1532 1532 1532 1532 1532 1533
1508 1512 1515 1512 1507 1510 1513 1513 1510 1509 1510 1511 1512 1513 1514 1516 1518 1520 1521 1522 1524 1525 1526 1526 1527 1528 1528 1529 1529 1529 1530 1530 1530 1531 1531 1531 1531 1531 1531 1531 1532 1531 1531 1531 1531 1532 1532 1532 1532
1508 1513 1514 1511 1507 1510 1513 1513 1508 1508 1508 1508 1509 1511 1512 1515 1517 1518 1520 1521 1523 1524 1525 1526 1526 1527 1528 1528 1529 1529 1529 1530 1530 1530 1530 1531 1531 1531 1531 1531 1531 1531 1531 1531 1531 1531 1531 1531 1531
1508 1511 1511 1512 1510 1510 1513 1515 1510 1506 1506 1507 1508 1509 1510 1512 1514 1516 1518 1520 1521 1522 1524 1525 1526 1527 1527 1528 1528 1529 1529 1529 1529 1529 1529 1530 1530 1530 1530 1530 1530 1530 1530 1530 1530 1530 1530 1530 1531
1509 1503 1505 1508 1515 1520 1516 1527 1512 1507 1506 1505 1505 1506 1508 1510 1512 1514 1516 1518 1519 1521 1523 1524 1525 1526 1526 1527 1527 1527 1527 1528 1528 1528 1528 1529 1529 1529 1529 1529 1529 1529 1529 1529 1530 1530 1530 1530 1530
1502 1500 1504 1508 1514 1521 1519 1525 1518 1508 1507 1504 1502 1503 1505 1507 1510 1512 1514 1516 1518 1520 1521 1523 1524 1525 1525 1526 1526 1527 1527 1527 1527 1528 1528 1528 1528 1528 1528 1528 1528 1528 1528 1528 1528 1528 1528 1529 1529
1498 1504 1509 1515 1520 1527 1520 1524 1521 1510 1504 1500 1499 1500 1502 1505 1507 1510 1513 1515 1516 1518 1520 1521 1522 1523 1524 1525 1525 1525 1526 1526 1526 1526 1527 1527 1527 1527 1526 1527 1527 1527 1527 1527 1527 1527 1527 1527 1527
1500 1513 1527 1528 1533 1529 1518 1521 1516 1501 1497 1496 1496 1497 1499 1502 1505 1508 1510 1512 1514 1516 1518 1519 1521 1521 1522 1523 1523 1524 1524 1525 1525 1525 1525 1525 1525 1525 1525 1525 1525 1525 1525 1525 1525 1526 1525 1525 1525
1501 1509 1526 1531 1533 1529 1519 1520 1508 1497 1494 1493 1494 1495 1498 1501 1503 1505 1508 1510 1512 1514 1515 1517 1518 1519 1520 1521 1522 1522 1523 1523 1523 1524 1524 1524 1524 1524 1524 1524 1524 1524 1524 1524 1524 1524 1524 1524 1523
1502 1508 1509 1522 1525 1529 1524 1514 1503 1495 1494 1493 1494 1495 1497 1499 1501 1503 1505 1508 1510 1511 1513 1515 1516 1517 1518 1519 1520 1521 1521 1521 1522 1522 1522 1522 1522 1522 1522 1522 1522 1522 1522 1522 1522 1521 1521 1521 1521
1495 1502 1515 1521 1528 1532 1524 1518 1512 1499 1496 1495 1494 1494 1495 1497 1499 1501 1503 1506 1507 1509 1511 1513 1514 1515 1516 1517 1518 1519 1519 1520 1520 1520 1521 1521 1521 1520 1520 1520 1520 1520 1520 1519 1519 1519 1519 1519 1519
1499 1504 1511 1519 1521 1529 1531 1520 1499 1496 1494 1494 1493 1493 1494 1496 1497 1499 1502 1504 1506 1508 1509 1511 1512 1513 1514 1515 1516 1516 1517 1518 1518 1518 1518 1519 1519 1519 1518 1518 1518 1517 1517 1517 1517 1517 1517 1517 1516
1492 1497 1507 1515 1519 1523 1526 1518 1493 1492 1491 1491 1492 1493 1494 1495 1496 1499 1501 1503 1505 1506 1507 1508 1510 1511 1512 1513 1514 1514 1515 1515 1516 1516 1516 1516 1516 1516 1516 1516 1515 1515 1515 1515 1514 1514 1514 1514 1513